Regional Weather Roundup
Issued by NWS

Home | Current Version | Previous Version | Graphics & Text | Print | Product List | Glossary On
Versions: 1 2 3 4 5 6 7 8 9 10 11 12 13 14 15 16 17 18 19 20 21 22 23 24 25 26 27 28 29 30 31 32 33 34 35 36 37 38 39 40 41 42 43 44 45 46 47 48 49 50
000
ASUS43 KMKX 251820
RWRWI

WISCONSIN REGIONAL WEATHER ROUNDUP
NATIONAL WEATHER SERVICE MILWAUKEE/SULLIVAN WI
100 PM CDT FRI JUL 25 2014

NOTE: "FAIR" INDICATES FEW OR NO CLOUDS BELOW 12,000 FEET WITH NO
SIGNIFICANT WEATHER AND/OR OBSTRUCTIONS TO VISIBILITY.

WIZ001-002-006>008-014>016-023>028-251900-
NORTHWEST WISCONSIN

CITY           SKY/WX    TMP DP  RH WIND       PRES   REMARKS
SUPERIOR ARPT  CLOUDY    62  58  86 CALM      29.81S
6HR MIN TEMP:  57; 6HR MAX TEMP:  64;

ASHLAND        CLOUDY    73  64  73 SW9       29.82F
6HR MIN TEMP:  63; 6HR MAX TEMP:  72;

HAYWARD        CLOUDY    68  62  81 S7        29.84R
6HR MIN TEMP:  63; 6HR MAX TEMP:  68; 6HR PCP: TRACE;

SIREN          CLOUDY    71  65  81 SW6       29.82R
6HR MIN TEMP:  64; 6HR MAX TEMP:  71; 6HR PCP:  0.11;

RICE LAKE      CLOUDY    67  62  82 SE12      29.85F
6HR MIN TEMP:  64; 6HR MAX TEMP:  67;

LADYSMITH      CLOUDY    68  62  81 S8        29.87F
6HR MIN TEMP:  64; 6HR MAX TEMP:  68;

EAU CLAIRE     CLOUDY    71  64  78 S8        29.85S
6HR MIN TEMP:  63; 6HR MAX TEMP:  71; 6HR PCP:  0.10;

MENOMONIE      CLOUDY    72  65  79 SE8       29.84F
6HR MIN TEMP:  64; 6HR MAX TEMP:  71; 6HR PCP:  0.18;

NEW RICHMOND   CLOUDY    74  65  74 SW10      29.83S
6HR MIN TEMP:  63; 6HR MAX TEMP:  74; 6HR PCP:  0.14;

OSCEOLA        CLOUDY    74  68  80 SW7       29.84F
6HR MIN TEMP:  64; 6HR MAX TEMP:  75; 6HR PCP:  0.06;

$$

WIZ003>005-009-010-017-018-251900-
NORTH CENTRAL WISCONSIN

CITY           SKY/WX    TMP DP  RH WIND       PRES   REMARKS
WOODRUFF       CLOUDY    72  62  72 SW8       29.87F
6HR MIN TEMP:  62; 6HR MAX TEMP:  72;

RHINELANDER    CLOUDY    66  60  81 SW6       29.90F
6HR MIN TEMP:  61; 6HR MAX TEMP:  66; 6HR PCP:  0.01;

EAGLE RIVER    CLOUDY    67  58  73 SW8       29.88F
6HR MIN TEMP:  60; 6HR MAX TEMP:  69; 6HR PCP:  0.02;

LAND O LAKES   CLOUDY    70  60  70 S8        29.87F
6HR MIN TEMP:  60; 6HR MAX TEMP:  70;

PHILLIPS       CLOUDY    67  61  81 SW10      29.86S
6HR MIN TEMP:  62; 6HR MAX TEMP:  68;

TOMAHAWK       CLOUDY    66  60  80 SW5       29.88F
6HR MIN TEMP:  59; 6HR MAX TEMP:  66; 6HR PCP:  0.05;

MEDFORD        CLOUDY    64  60  87 SW8       29.89S
6HR MIN TEMP:  61; 6HR MAX TEMP:  65;

MERRILL        CLOUDY    67  60  79 SW13      29.88F
6HR MIN TEMP:  61; 6HR MAX TEMP:  68;

$$

WIZ029-030-035-036-043>047-251900-
CENTRAL WISCONSIN

CITY           SKY/WX    TMP DP  RH WIND       PRES   REMARKS
WAUSAU         CLOUDY    70  60  70 S13G22    29.88S
6HR MIN TEMP:  61; 6HR MAX TEMP:  70; 6HR PCP:  0.02;

MOSINEE        CLOUDY    64  61  88 S13       29.91F
MARSHFIELD     CLOUDY    65  60  84 S9        29.89F
6HR MIN TEMP:  63; 6HR MAX TEMP:  65; 6HR PCP: TRACE;

STEVENS POINT  CLOUDY    64  57  77 SW14      29.91F
6HR MIN TEMP:  59; 6HR MAX TEMP:  65; 6HR PCP:  0.01;

WAUPACA        CLOUDY    70  59  69 SW12      29.91F
6HR MIN TEMP:  63; 6HR MAX TEMP:  71;

WAUTOMA        CLOUDY    69  60  73 S8        29.92R
6HR MIN TEMP:  60; 6HR MAX TEMP:  69; 6HR PCP: TRACE;

WISC RAPIDS    CLOUDY    65  59  81 SW7       29.92S
6HR MIN TEMP:  62; 6HR MAX TEMP:  68; 6HR PCP: TRACE;

CAMP DOUGLAS   PTSUNNY   70  64  83 SW12G18   29.88R
                                      6HR PCP:  0.03;

$$

WIZ011>013-019>022-031-037>040-048>050-251900-
NORTHEAST WISCONSIN

CITY           SKY/WX    TMP DP  RH WIND       PRES   REMARKS
ANTIGO         CLOUDY    66  60  82 S14       29.91S
6HR MIN TEMP:  59; 6HR MAX TEMP:  67; 6HR PCP:  0.02;

STURGEON BAY   CLOUDY    72  55  56 S9        29.92F
6HR MIN TEMP:  63; 6HR MAX TEMP:  72;

GREEN BAY      CLOUDY    71  59  65 SW9G20    29.91F
6HR MIN TEMP:  64; 6HR MAX TEMP:  71; 6HR PCP: TRACE;

MANITOWOC      CLOUDY    68  57  68 S10       29.93F
6HR MIN TEMP:  64; 6HR MAX TEMP:  71; 6HR PCP: TRACE;

APPLETON       CLOUDY    66  55  68 S14       29.91F
CLINTONVILLE   CLOUDY    68  55  64 SW8       29.91S
OSHKOSH        CLOUDY    68  58  70 SW10G24   29.91F
6HR MIN TEMP:  62; 6HR MAX TEMP:  69; 6HR PCP: TRACE;

$$

WIZ032>034-041-042-053>061-251900-
SOUTHWEST WISCONSIN

CITY           SKY/WX    TMP DP  RH WIND       PRES   REMARKS
LA CROSSE      CLOUDY    70  62  76 S8        29.87R
6HR MIN TEMP:  64; 6HR MAX TEMP:  70; 6HR PCP:  0.22;

SPARTA         CLOUDY    67  59  75 SW3       29.89R
6HR MIN TEMP:  62; 6HR MAX TEMP:  68; 6HR PCP:  0.05;

VIROQUA        CLOUDY    66  61  85 S8        29.89F
6HR MIN TEMP:  61; 6HR MAX TEMP:  66; 6HR PCP:  0.12;

BOSCOBEL       CLOUDY    70  60  70 VRB7      29.90F
6HR MIN TEMP:  64; 6HR MAX TEMP:  70; 6HR PCP:  0.01;

PRAIRIE DU CHI NOT AVBL
PLATTEVILLE    CLOUDY    65  61  87 SW3       29.93S
6HR MIN TEMP:  60; 6HR MAX TEMP:  65; 6HR PCP:  0.02;

$$

WIZ056-057-062-063-064-067-068-251900-
SOUTH CENTRAL WISCONSIN

CITY           SKY/WX    TMP DP  RH WIND       PRES   REMARKS
BARABOO/DELLS  CLOUDY    65  58  78 S9        29.90F
6HR MIN TEMP:  62; 6HR MAX TEMP:  65;

LONE ROCK      CLOUDY    70  60  70 CALM      29.92S
6HR MIN TEMP:  67; 6HR MAX TEMP:  71; 6HR PCP: TRACE;

WATERTOWN      CLOUDY    65  60  85 S3        29.92F
6HR MIN TEMP:  60; 6HR MAX TEMP:  66;

MADISON        CLOUDY    68  58  70 S12       29.93S
6HR MIN TEMP:  63; 6HR MAX TEMP:  68; 6HR PCP: TRACE;

MIDDLETON      CLOUDY    68  57  66 SW5       29.94R
6HR MIN TEMP:  64; 6HR MAX TEMP:  68;

MONROE         CLOUDY    66  59  77 SW12      29.95R
JANESVILLE     SUNNY     72  55  56 SW12      29.93
$$

WIZ051-052-058>065-066-070>072-251900-
SOUTHEAST WISCONSIN

CITY           SKY/WX    TMP DP  RH WIND       PRES   REMARKS
MILWAUKEE      CLOUDY    71  56  58 SW15      29.94F
6HR MIN TEMP:  63; 6HR MAX TEMP:  74;

WAUKESHA       CLOUDY    66  55  68 S15       29.95
MILWAUKEE/TIMM MOSUNNY   70  54  56 SW12      29.95F
RACINE         CLOUDY    73  57  57 SW15G22   29.96F
6HR MIN TEMP:  61; 6HR MAX TEMP:  75; 6HR PCP: TRACE;

BURLINGTON     CLOUDY    68  58  70 S8        29.93F
6HR MIN TEMP:  55; 6HR MAX TEMP:  71;

KENOSHA        CLOUDY    71  57  61 SW15G23   29.96F
6HR MIN TEMP:  59; 6HR MAX TEMP:  75; 6HR PCP:  0.01;

FOND DU LAC    CLOUDY    67  57  70 S12G21    29.92F
6HR MIN TEMP:  60; 6HR MAX TEMP:  68; 6HR PCP: TRACE;

SHEBOYGAN      CLOUDY    71  56  58 S15       29.94F
6HR MIN TEMP:  62; 6HR MAX TEMP:  73; 6HR PCP:  0.01;

WEST BEND      LGT RAIN  64  55  72 CALM      29.95S
JUNEAU         LGT RAIN  64  58  83 S8        29.94F
6HR MIN TEMP:  58; 6HR MAX TEMP:  67; 6HR PCP:  0.02;

$$

LSZ147-162-251900-
LAKE SUPERIOR

STATION/POSITION TIME  TEMP    WIND        PRES    WAVE
                       AIR SEA DIR/SP/G            HT/PER
                 (UTC) (F)     (DEG/KT/KT) (MB)    (FT/S)
$$

LMZ867-665-643>646-251900-
LAKE MICHIGAN

STATION/POSITION TIME  TEMP    WIND        PRES    WAVE
                       AIR SEA DIR/SP/G            HT/PER
                 (UTC) (F)     (DEG/KT/KT) (MB)    (FT/S)
$$

TC  - TEMPERATURE IN CELSIUS
VSB - VISIBILITY IN STATUTE MILES
WCI - WIND CHILL INDEX
HX  - HEAT INDEX




USA.gov is the U.S. government's official web portal to all federal, state and local government web resources and services.